Overview Statistics Trail Chart Weather Telemetry Raw packets
 

This is the latest recevied weather packets stored in our database for station/object N7WGJ. If no packets are shown the sender has not sent any weather packets the latest 10 day(s).

<< 41 42 43 44 45 46 47 >>
Time Temp. Humidity Pressure Rain* Wind** Luminosity Snow
1788051102 19.44° C 60% 1018 hPa 0 mm - - -
1788050499 19.44° C 60% 1018 hPa 0 mm - - -
1788049901 19.44° C 60% 1018 hPa 0 mm - - -
1788049299 20° C 59% 1018 hPa 0 mm - - -
1788048698 20° C 57% 1017.9 hPa 0 mm - - -
1788048098 21.11° C 56% 1018 hPa 0 mm - - -
1788047490 21.11° C 57% 1017.8 hPa 0 mm - - -
1788046889 21.11° C 57% 1017.8 hPa 0 mm - - -
1788046289 21.11° C 57% 1017.7 hPa 0 mm - - -
1788045693 21.11° C 59% 1017.8 hPa 0 mm - - -
1788045102 21.11° C 60% 1017.8 hPa 0 mm - - -
1788044501 21.11° C 58% 1017.8 hPa 0 mm - - -
1788043896 21.11° C 56% 1017.9 hPa 0 mm - - -
1788043301 21.11° C 57% 1017.8 hPa 0 mm - - -
1788042697 21.67° C 56% 1017.7 hPa 0 mm - - -
1788042101 21.67° C 53% 1017.8 hPa 0 mm - - -
1788041502 21.67° C 54% 1017.7 hPa 0 mm - - -
1788040903 21.11° C 57% 1017.7 hPa 0 mm - - -
1788040295 20.56° C 56% 1017.8 hPa 0 mm - - -
1788039698 20.56° C 54% 1018 hPa 0 mm - - -
1788039100 21.11° C 54% 1018.2 hPa 0 mm - - -
1788038499 21.11° C 56% 1018.1 hPa 0 mm - - -
1788037894 20.56° C 58% 1018.1 hPa 0 mm - - -
1788037314 20.56° C 58% 1018.1 hPa 0 mm - - -
1788036685 20° C 61% 1018.1 hPa 0 mm - - -

* Rain latest hour (hover to see other rain measurements)
** Current wind speed in m/s (hover to see current wind gust speed)